• Em Portugal
  • Lista de países
  • Para 7 dias
  • Temperatura da água
  • Mapas de satélite
  • Mapa do tempo
  • Widgets de tempo
  • user-avatar
    Iniciar Sessão

    Previsão horária em Pokhara

    Hoje, 18 Junho, Segunda-feira

    Tempo Temperatura Precipitação Vento Pressão Humidade
    00:00 +25°C° 0 mm 1 m/s 677 mmHg 88%
    01:00 +25°C° 0,4 mm 1 m/s 677 mmHg 87%
    02:00 +25°C° 0,4 mm 1 m/s 677 mmHg 85%
    03:00 +25°C° 0,4 mm 1 m/s 677 mmHg 84%
    04:00 +25°C° 0,2 mm 1 m/s 677 mmHg 83%
    05:00 +25°C° 0,2 mm 1 m/s 677 mmHg 82%
    06:00 +25°C° 0 mm 1 m/s 677 mmHg 84%
    07:00 +27°C° 0,1 mm 1 m/s 677 mmHg 78%
    08:00 +29°C° 0,1 mm 1 m/s 678 mmHg 71%
    09:00 +31°C° 0,1 mm 2 m/s 678 mmHg 65%
    10:00 +32°C° 0,2 mm 2 m/s 678 mmHg 63%
    11:00 +34°C° 0,2 mm 2 m/s 678 mmHg 61%
    12:00 +34°C° 0 mm 2 m/s 678 mmHg 60%
    13:00 +34°C° 0,4 mm 2 m/s 678 mmHg 60%
    14:00 +34°C° 0,4 mm 2 m/s 678 mmHg 60%
    15:00 +34°C° 0,4 mm 2 m/s 677 mmHg 59%
    16:00 +34°C° 0,6 mm 2 m/s 677 mmHg 62%
    17:00 +32°C° 0,6 mm 2 m/s 677 mmHg 64%
    18:00 +31°C° 0 mm 2 m/s 677 mmHg 69%
    19:00 +30°C° 0,4 mm 2 m/s 677 mmHg 72%
    20:00 +29°C° 0,4 mm 1 m/s 677 mmHg 75%
    21:00 +27°C° 0,4 mm 1 m/s 678 mmHg 79%
    22:00 +27°C° 0 mm 1 m/s 678 mmHg 78%
    23:00 +27°C° 0 mm 1 m/s 678 mmHg 76%

    Amanhã, 19 Junho, Terça-feira

    Tempo Temperatura Precipitação Vento Pressão Humidade
    00:00 +26°C° 0 mm 1 m/s 678 mmHg 75%
    01:00 +26°C° 0 mm 1 m/s 678 mmHg 74%
    02:00 +26°C° 0 mm 1 m/s 678 mmHg 72%
    03:00 +25°C° 0 mm 1 m/s 678 mmHg 71%
    04:00 +25°C° 0 mm 1 m/s 678 mmHg 69%
    05:00 +25°C° 0 mm 1 m/s 678 mmHg 68%
    06:00 +25°C° 0 mm 1 m/s 678 mmHg 67%
    07:00 +27°C° 0 mm 1 m/s 679 mmHg 62%
    08:00 +30°C° 0 mm 1 m/s 679 mmHg 58%
    09:00 +32°C° 0 mm 1 m/s 680 mmHg 53%
    10:00 +34°C° 0 mm 2 m/s 680 mmHg 52%
    11:00 +35°C° 0 mm 2 m/s 680 mmHg 52%
    12:00 +36°C° 0 mm 2 m/s 679 mmHg 51%
    13:00 +36°C° 0,1 mm 2 m/s 679 mmHg 52%
    14:00 +35°C° 0,1 mm 2 m/s 679 mmHg 53%
    15:00 +35°C° 0,1 mm 2 m/s 678 mmHg 54%
    16:00 +34°C° 0,1 mm 2 m/s 678 mmHg 57%
    17:00 +34°C° 0,1 mm 2 m/s 678 mmHg 60%
    18:00 +32°C° 0,1 mm 2 m/s 678 mmHg 64%
    19:00 +31°C° 0,4 mm 1 m/s 678 mmHg 68%
    20:00 +29°C° 0,4 mm 1 m/s 678 mmHg 72%
    21:00 +28°C° 0,4 mm 1 m/s 679 mmHg 76%
    22:00 +28°C° 0,2 mm 1 m/s 679 mmHg 76%
    23:00 +27°C° 0,2 mm 1 m/s 679 mmHg 76%

    Depois de amanhã, 20 Junho, Quarta-feira

    Tempo Temperatura Precipitação Vento Pressão Humidade
    00:00 +27°C° 0,2 mm 1 m/s 679 mmHg 75%
    01:00 +27°C° 0 mm 1 m/s 679 mmHg 74%
    02:00 +26°C° 0 mm 1 m/s 678 mmHg 73%
    03:00 +26°C° 0 mm 1 m/s 678 mmHg 72%
    04:00 +26°C° 0 mm 1 m/s 678 mmHg 71%
    05:00 +26°C° 0 mm 1 m/s 679 mmHg 70%
    06:00 +26°C° 0 mm 1 m/s 679 mmHg 69%
    07:00 +28°C° 0 mm 1 m/s 679 mmHg 64%
    08:00 +31°C° 0 mm 1 m/s 680 mmHg 58%
    09:00 +33°C° 0 mm 1 m/s 680 mmHg 52%
    10:00 +35°C° 0 mm 2 m/s 680 mmHg 50%
    11:00 +36°C° 0 mm 2 m/s 680 mmHg 48%
    12:00 +37°C° 0 mm 2 m/s 680 mmHg 45%
    13:00 +37°C° 0,1 mm 2 m/s 680 mmHg 48%
    14:00 +36°C° 0,1 mm 2 m/s 679 mmHg 50%
    15:00 +36°C° 0,1 mm 2 m/s 679 mmHg 53%
    16:00 +35°C° 0,1 mm 2 m/s 678 mmHg 56%
    17:00 +34°C° 0,1 mm 2 m/s 678 mmHg 59%
    18:00 +32°C° 0,1 mm 2 m/s 678 mmHg 62%
    19:00 +31°C° 0,2 mm 1 m/s 678 mmHg 65%
    20:00 +30°C° 0,2 mm 1 m/s 679 mmHg 68%
    21:00 +29°C° 0,2 mm 1 m/s 679 mmHg 71%
    22:00 +28°C° 0 mm 1 m/s 679 mmHg 70%
    23:00 +28°C° 0 mm 1 m/s 679 mmHg 69%

    21 Junho, Quinta-feira

    Tempo Temperatura Precipitação Vento Pressão Humidade
    00:00 +28°C° 0 mm 1 m/s 679 mmHg 68%
    01:00 +28°C° 0 mm 1 m/s 679 mmHg 67%
    02:00 +27°C° 0 mm 1 m/s 679 mmHg 66%
    03:00 +27°C° 0 mm 1 m/s 679 mmHg 64%
    04:00 +27°C° 0 mm 1 m/s 679 mmHg 64%
    05:00 +27°C° 0 mm 1 m/s 679 mmHg 63%
    06:00 +27°C° 0 mm 1 m/s 679 mmHg 62%
    07:00 +29°C° 0 mm 1 m/s 679 mmHg 59%
    08:00 +31°C° 0 mm 1 m/s 680 mmHg 55%
    09:00 +33°C° 0 mm 1 m/s 680 mmHg 51%
    10:00 +35°C° 0,1 mm 2 m/s 680 mmHg 51%
    11:00 +36°C° 0,1 mm 2 m/s 680 mmHg 51%
    12:00 +37°C° 0,1 mm 3 m/s 680 mmHg 50%
    13:00 +36°C° 0,3 mm 2 m/s 679 mmHg 52%
    14:00 +36°C° 0,3 mm 2 m/s 678 mmHg 55%
    15:00 +36°C° 0,3 mm 2 m/s 678 mmHg 57%
    16:00 +34°C° 0,4 mm 2 m/s 678 mmHg 60%
    17:00 +32°C° 0,4 mm 2 m/s 677 mmHg 63%
    18:00 +31°C° 0,4 mm 2 m/s 677 mmHg 66%
    19:00 +30°C° 0,3 mm 1 m/s 678 mmHg 69%
    20:00 +29°C° 0,3 mm 1 m/s 678 mmHg 71%
    21:00 +28°C° 0,3 mm 1 m/s 679 mmHg 73%
    22:00 +28°C° 0,1 mm 1 m/s 679 mmHg 72%
    23:00 +28°C° 0,1 mm 1 m/s 679 mmHg 71%

    22 Junho, Sexta-feira

    Tempo Temperatura Precipitação Vento Pressão Humidade
    00:00 +28°C° 0,1 mm 1 m/s 679 mmHg 70%
    01:00 +28°C° 0,2 mm 1 m/s 679 mmHg 69%
    02:00 +28°C° 0,2 mm 1 m/s 678 mmHg 68%
    03:00 +28°C° 0,2 mm 1 m/s 678 mmHg 67%
    04:00 +27°C° 0,1 mm 1 m/s 678 mmHg 67%
    05:00 +27°C° 0,1 mm 1 m/s 678 mmHg 67%
    06:00 +27°C° 0,1 mm 1 m/s 679 mmHg 67%
    07:00 +29°C° 0,1 mm 1 m/s 679 mmHg 63%
    08:00 +31°C° 0,1 mm 1 m/s 679 mmHg 59%
    09:00 +33°C° 0,1 mm 1 m/s 680 mmHg 56%
    10:00 +35°C° 0,2 mm 2 m/s 680 mmHg 55%
    11:00 +36°C° 0,2 mm 2 m/s 679 mmHg 55%
    12:00 +37°C° 0,2 mm 3 m/s 679 mmHg 54%
    13:00 +37°C° 0,6 mm 2 m/s 679 mmHg 56%
    14:00 +36°C° 0,6 mm 2 m/s 678 mmHg 57%
    15:00 +36°C° 0,6 mm 2 m/s 677 mmHg 59%
    16:00 +35°C° 0,9 mm 2 m/s 677 mmHg 63%
    17:00 +34°C° 0,9 mm 2 m/s 677 mmHg 66%
    18:00 +32°C° 0,9 mm 2 m/s 677 mmHg 70%
    19:00 +31°C° 1,4 mm 1 m/s 677 mmHg 74%
    20:00 +30°C° 1,4 mm 1 m/s 678 mmHg 79%
    21:00 +29°C° 1,4 mm 1 m/s 678 mmHg 83%
    22:00 +28°C° 0,7 mm 1 m/s 678 mmHg 82%
    23:00 +28°C° 0,7 mm 1 m/s 678 mmHg 81%

    23 Junho, Sábado

    Tempo Temperatura Precipitação Vento Pressão Humidade
    00:00 +28°C° 0,7 mm 1 m/s 678 mmHg 80%
    01:00 +28°C° 0,7 mm 1 m/s 678 mmHg 80%
    02:00 +28°C° 0,7 mm 1 m/s 678 mmHg 81%
    03:00 +25°C° 0,7 mm 0 m/s 678 mmHg 81%
    04:00 +27°C° 0,6 mm 1 m/s 678 mmHg 81%
    05:00 +27°C° 0,6 mm 1 m/s 678 mmHg 80%
    06:00 +27°C° 0,6 mm 1 m/s 678 mmHg 80%
    07:00 +28°C° 0,2 mm 1 m/s 678 mmHg 76%
    08:00 +30°C° 0,2 mm 1 m/s 678 mmHg 72%
    09:00 +31°C° 0,2 mm 1 m/s 678 mmHg 67%
    10:00 +32°C° 0,3 mm 2 m/s 678 mmHg 66%
    11:00 +34°C° 0,3 mm 2 m/s 678 mmHg 65%
    12:00 +34°C° 0,3 mm 2 m/s 678 mmHg 64%
    13:00 +34°C° 0,7 mm 2 m/s 677 mmHg 65%
    14:00 +34°C° 0,7 mm 2 m/s 676 mmHg 66%
    15:00 +34°C° 0,7 mm 2 m/s 676 mmHg 67%
    16:00 +34°C° 0,8 mm 2 m/s 676 mmHg 71%
    17:00 +32°C° 0,8 mm 1 m/s 676 mmHg 74%
    18:00 +31°C° 0,8 mm 1 m/s 676 mmHg 77%
    19:00 +30°C° 0,5 mm 1 m/s 676 mmHg 80%
    20:00 +30°C° 0,5 mm 1 m/s 676 mmHg 82%
    21:00 +29°C° 0,5 mm 1 m/s 677 mmHg 84%
    22:00 +29°C° 0,2 mm 1 m/s 677 mmHg 84%
    23:00 +28°C° 0,2 mm 1 m/s 676 mmHg 83%
    Mostrar mais